GW5170 Weather Reports


Display with metric or nautical units.
time (UTC)temp
F
wind
direction
speed
MPH
gust
MPH
rain 1hr
in
rain 24hr
in
rain mn
in
humidity
%
barometer
mb
20260504060241 52 309 0.0 0.0 0.00 0.00 0.00 58 1006.8
20260504050709 54 323 0.0 1.0 0.00 0.00 0.00 57 1007.3
20260504050206 53 308 0.0 1.0 0.00 0.00 0.00 56 1007.3
20260504045703 54 329 0.0 0.0 0.00 0.01 0.01 57 1007.1
20260504045203 55 324 0.0 0.0 0.00 0.01 0.01 56 1007.1
20260504044702 56 2 0.0 0.0 0.00 0.01 0.01 54 1007.1
20260504044158 56 319 0.0 0.0 0.00 0.01 0.01 50 1007.2
20260504043655 56 325 0.0 0.0 0.00 0.01 0.01 50 1007.3
20260504043152 56 269 2.0 2.0 0.00 0.01 0.01 50 1007.3
20260504042650 56 298 1.0 1.0 0.00 0.01 0.01 50 1007.2
20260504042146 57 257 1.0 2.0 0.00 0.01 0.01 48 1007.4
20260504041642 56 272 2.0 2.0 0.00 0.01 0.01 52 1007.3
20260504041138 56 271 1.0 2.0 0.00 0.01 0.01 53 1007.1
20260504040636 57 307 0.0 1.0 0.00 0.01 0.01 52 1007.2
20260504040132 57 326 1.0 1.0 0.00 0.01 0.01 53 1007.2
20260504035629 57 317 0.0 0.0 0.00 0.01 0.01 53 1007.3
20260504035125 58 346 0.0 0.0 0.00 0.01 0.01 52 1007.3
20260504034624 59 320 0.0 0.0 0.00 0.01 0.01 50 1007.2
20260504034120 60 330 0.0 0.0 0.00 0.01 0.01 47 1007.4
20260504033618 61 319 0.0 0.0 0.00 0.01 0.01 44 1007.3
20260504033115 61 313 0.0 1.0 0.00 0.01 0.01 44 1007.4
20260504032612 61 333 1.0 1.0 0.00 0.01 0.01 46 1007.3
20260504032109 61 316 0.0 0.0 0.00 0.01 0.01 44 1007.2
20260504031606 62 313 2.0 2.0 0.00 0.01 0.01 42 1007.4
20260504031102 62 325 1.0 1.0 0.00 0.01 0.01 44 1007.4
20260504030559 63 316 0.0 0.0 0.00 0.01 0.01 41 1007.4
20260504030055 64 313 1.0 2.0 0.00 0.01 0.01 40 1007.4
20260504025553 64 315 1.0 1.0 0.00 0.01 0.01 38 1007.3
20260504025049 65 293 1.0 1.0 0.00 0.01 0.01 37 1007.4
20260504024547 65 295 1.0 1.0 0.00 0.01 0.01 37 1007.2
20260504024043 65 316 1.0 2.0 0.00 0.01 0.01 37 1007.2
20260504023540 65 297 3.0 3.0 0.00 0.01 0.01 37 1007.2
20260504023036 65 277 3.0 4.0 0.00 0.01 0.01 37 1007.1
20260504022532 66 282 3.0 3.0 0.00 0.01 0.01 37 1007.1
20260504022028 66 322 3.0 3.0 0.00 0.01 0.01 37 1007.1
20260504021526 66 304 3.0 4.0 0.00 0.01 0.01 36 1007.1
20260504021023 66 285 2.0 2.0 0.00 0.01 0.01 36 1007.0
20260504020520 66 270 4.0 6.0 0.00 0.01 0.01 36 1007.0
20260504020016 67 281 2.0 3.0 0.00 0.01 0.01 35 1006.9
20260504015513 67 311 1.0 2.0 0.00 0.01 0.01 35 1006.8
20260504015009 68 263 4.0 4.0 0.00 0.01 0.01 35 1006.6
20260504014505 68 302 2.0 3.0 0.00 0.01 0.01 34 1006.6
20260504014002 68 294 3.0 3.0 0.00 0.01 0.01 35 1006.6
20260504013500 68 259 1.0 2.0 0.00 0.01 0.01 34 1006.5
20260504012955 69 278 2.0 3.0 0.00 0.01 0.01 34 1006.6
20260504012454 69 311 2.0 3.0 0.00 0.01 0.01 33 1006.3
20260504011952 69 296 2.0 4.0 0.00 0.01 0.01 33 1006.4
20260504011448 69 298 4.0 6.0 0.00 0.01 0.01 33 1006.4
20260504010944 70 305 4.0 4.0 0.00 0.01 0.01 33 1006.4
20260504010440 70 309 2.0 2.0 0.00 0.01 0.01 32 1006.2
20260504005936 71 284 2.0 3.0 0.00 0.01 0.01 31 1006.0
20260504005433 71 277 4.0 4.0 0.00 0.01 0.01 31 1006.1
20260504004930 72 274 4.0 4.0 0.00 0.01 0.01 30 1006.2
20260504004428 72 307 3.0 4.0 0.00 0.01 0.01 30 1006.1
20260504003925 73 285 3.0 4.0 0.00 0.01 0.01 29 1006.2
20260504003421 73 294 3.0 4.0 0.00 0.01 0.01 29 1006.0
20260504002918 73 273 3.0 3.0 0.00 0.01 0.01 29 1006.1
20260504002415 74 288 2.0 2.0 0.00 0.01 0.01 29 1006.0
20260504001913 74 283 3.0 4.0 0.00 0.01 0.01 28 1006.1
20260504001410 74 340 6.0 8.0 0.00 0.01 0.01 28 1006.0
20260504000906 75 297 4.0 6.0 0.00 0.01 0.01 28 1005.9
20260504000403 75 279 6.0 9.0 0.00 0.01 0.01 28 1006.0
20260503235901 75 321 5.0 6.0 0.00 0.01 0.01 28 1005.7
20260503235359 75 276 6.0 7.0 0.00 0.01 0.01 28 1005.9
20260503234856 75 279 5.0 8.0 0.00 0.01 0.01 28 1005.9
20260503234353 75 285 4.0 4.0 0.00 0.01 0.01 28 1005.8
20260503233851 75 268 4.0 8.0 0.00 0.01 0.01 27 1005.7
20260503233347 76 308 7.0 9.0 0.00 0.01 0.01 27 1005.9
20260503232843 76 340 6.0 9.0 0.00 0.01 0.01 28 1005.7
20260503232341 75 277 13.0 21.0 0.00 0.01 0.01 27 1005.9
20260503231839 76 285 4.0 4.0 0.00 0.01 0.01 28 1005.8
20260503231336 76 325 5.0 7.0 0.00 0.01 0.01 28 1005.9
20260503230832 76 269 4.0 6.0 0.00 0.01 0.01 27 1005.8
20260503230329 76 297 8.0 9.0 0.00 0.01 0.01 27 1005.8
20260503225826 76 283 6.0 9.0 0.00 0.01 0.01 28 1005.9
20260503225322 76 288 7.0 9.0 0.00 0.01 0.01 28 1005.8
20260503224818 77 270 7.0 8.0 0.00 0.01 0.01 28 1005.9
20260503224316 77 268 6.0 8.0 0.00 0.01 0.01 27 1005.9
20260503223814 77 273 4.0 6.0 0.00 0.01 0.01 28 1005.8
20260503223311 76 335 5.0 7.0 0.00 0.01 0.01 28 1005.7
20260503222806 76 285 6.0 9.0 0.00 0.01 0.01 28 1005.7
20260503222305 76 348 4.0 6.0 0.00 0.01 0.01 28 1005.8
20260503221803 76 280 5.0 7.0 0.00 0.01 0.01 26 1006.0
20260503221301 76 109 4.0 8.0 0.00 0.01 0.01 27 1005.9
20260503220757 76 314 11.0 13.0 0.00 0.01 0.01 27 1005.9
20260503220254 76 248 4.0 4.0 0.00 0.01 0.01 26 1005.9
20260503215751 76 308 8.0 10.0 0.00 0.01 0.01 27 1005.7
20260503215248 76 250 6.0 8.0 0.00 0.01 0.01 29 1005.7
20260503214746 76 305 8.0 11.0 0.00 0.01 0.01 29 1005.6
20260503214242 77 240 7.0 9.0 0.00 0.01 0.01 29 1005.6
20260503213740 76 280 9.0 11.0 0.00 0.01 0.01 31 1005.8
20260503213238 77 244 5.0 7.0 0.00 0.01 0.01 31 1005.9
20260503212734 76 268 6.0 10.0 0.00 0.01 0.01 32 1005.8
20260503212232 76 269 6.0 10.0 0.00 0.01 0.01 32 1005.7
20260503211729 75 290 5.0 8.0 0.00 0.01 0.01 32 1006.0
20260503211225 75 290 5.0 7.0 0.00 0.01 0.01 33 1006.0
20260503210721 75 318 6.0 7.0 0.00 0.01 0.01 34 1006.2
20260503210219 75 63 7.0 9.0 0.00 0.01 0.01 33 1006.3
20260503205714 75 250 11.0 13.0 0.00 0.01 0.01 33 1006.4
20260503205210 75 248 5.0 6.0 0.00 0.01 0.01 33 1006.4
20260503204707 74 241 6.0 7.0 0.00 0.01 0.01 34 1006.6
20260503204205 75 285 6.0 7.0 0.00 0.01 0.01 34 1006.5
20260503203701 74 228 9.0 10.0 0.00 0.01 0.01 34 1006.6
20260503203159 74 312 9.0 10.0 0.00 0.01 0.01 35 1006.8
20260503202656 74 289 4.0 7.0 0.00 0.01 0.01 36 1006.8
20260503202154 73 252 12.0 16.0 0.00 0.01 0.01 35 1006.9
20260503201652 74 239 3.0 4.0 0.00 0.01 0.01 35 1006.8
20260503201149 73 249 7.0 9.0 0.00 0.01 0.01 36 1007.2
20260503200645 73 250 2.0 3.0 0.00 0.01 0.01 35 1007.0
20260503200141 73 348 7.0 9.0 0.00 0.01 0.01 36 1007.1
20260503195638 72 263 10.0 11.0 0.00 0.01 0.01 36 1007.2
20260503195135 72 275 14.0 18.0 0.00 0.01 0.01 36 1007.4
20260503194632 72 241 6.0 10.0 0.00 0.01 0.01 36 1007.3
20260503194127 71 57 4.0 6.0 0.00 0.01 0.01 37 1007.5
20260503193625 71 349 11.0 14.0 0.00 0.01 0.01 37 1007.4
20260503193120 71 257 14.0 17.0 0.00 0.01 0.01 37 1007.5
20260503192616 71 52 14.0 23.0 0.00 0.01 0.01 37 1007.8
20260503192112 70 296 3.0 6.0 0.00 0.01 0.01 37 1007.6
20260503191609 72 282 11.0 15.0 0.00 0.01 0.01 36 1007.8
20260503191106 70 292 4.0 6.0 0.00 0.01 0.01 37 1007.8
20260503190603 70 254 12.0 16.0 0.00 0.01 0.01 38 1007.6
20260503190100 70 255 12.0 15.0 0.00 0.01 0.01 37 1007.8
20260503185556 69 194 9.0 11.0 0.00 0.01 0.01 37 1007.9
20260503185056 69 253 6.0 7.0 0.00 0.01 0.01 39 1007.9
20260503184552 69 318 5.0 6.0 0.00 0.01 0.01 39 1008.1
20260503184049 69 264 5.0 6.0 0.00 0.01 0.01 39 1008.3
20260503183545 69 302 7.0 10.0 0.00 0.01 0.01 39 1008.4
20260503183043 68 276 5.0 6.0 0.00 0.01 0.01 40 1008.3
20260503182541 68 273 7.0 8.0 0.00 0.01 0.01 39 1008.4
20260503182039 67 285 6.0 7.0 0.00 0.01 0.01 40 1008.5
20260503181535 67 44 4.0 6.0 0.00 0.01 0.01 40 1008.6
20260503181032 67 121 4.0 7.0 0.00 0.01 0.01 40 1008.5
20260503180529 67 252 8.0 9.0 0.00 0.01 0.01 40 1008.7
20260503180026 66 298 4.0 9.0 0.00 0.01 0.01 40 1008.8
20260503175524 66 314 10.0 14.0 0.00 0.01 0.01 41 1009.1
20260503175020 65 261 9.0 11.0 0.00 0.01 0.01 41 1008.8
20260503174518 66 133 3.0 4.0 0.00 0.01 0.01 41 1009.0
20260503174014 67 45 6.0 8.0 0.00 0.01 0.01 40 1009.1
20260503173509 65 237 11.0 15.0 0.00 0.01 0.01 41 1009.2
20260503173006 65 349 6.0 7.0 0.00 0.01 0.01 41 1009.3
20260503172504 64 260 13.0 17.0 0.00 0.01 0.01 42 1009.2
20260503172001 65 310 12.0 17.0 0.00 0.01 0.01 41 1009.3
20260503171457 64 229 9.0 10.0 0.00 0.01 0.01 42 1009.4
20260503170954 64 270 14.0 19.0 0.00 0.01 0.01 42 1009.5
20260503170450 63 250 13.0 16.0 0.00 0.01 0.01 42 1009.5
20260503150843 56 215 13.0 14.0 0.00 0.01 0.01 53 1010.9
20260503150339 56 214 9.0 10.0 0.00 0.01 0.01 55 1011.1
20260503140303 53 195 9.0 13.0 0.00 0.01 0.01 61 1011.1
20260503131233 49 190 4.0 6.0 0.00 0.00 0.00 70 1013.0
20260503130730 49 217 4.0 7.0 0.00 0.00 0.00 70 1013.2
20260503130227 49 209 3.0 3.0 0.00 0.00 0.00 71 1013.6
20260503120153 49 208 4.0 4.0 0.00 0.00 0.00 64 1014.2
20260503110621 48 249 3.0 3.0 0.00 0.00 0.00 68 1014.4
20260503110118 48 306 1.0 1.0 0.00 0.00 0.00 70 1014.6
20260503090508 48 257 4.0 6.0 0.00 0.00 0.00 58 1014.9
20260503081428 47 223 3.0 3.0 0.00 0.00 0.00 58 1014.9
20260503080925 47 250 3.0 4.0 0.00 0.00 0.00 58 1015.1
20260503080422 47 236 2.0 3.0 0.00 0.00 0.00 58 1015.1
20260503072858 46 309 2.0 2.0 0.00 0.00 0.00 58 1014.9
20260503072355 46 265 2.0 2.0 0.00 0.00 0.00 58 1015.0
20260503071851 46 279 2.0 2.0 0.00 0.00 0.00 58 1015.0
20260503071349 46 228 2.0 2.0 0.00 0.00 0.00 58 1015.0
20260503070844 46 274 2.0 2.0 0.00 0.00 0.00 57 1015.1
20260503070343 46 303 2.0 2.0 0.00 0.00 0.00 57 1015.1